Regional Weather Roundup
Issued by NWS Cleveland, OH

Home | Current Version | Previous Version | Text Only | Print | Product List | Glossary Off
Versions: 1 2 3 4 5 6 7 8 9 10 11 12 13 14 15 16 17 18 19 20 21 22 23 24 25 26 27 28 29 30 31 32 33 34 35 36 37 38 39 40 41 42 43 44 45 46 47 48 49 50

000
ASUS41 KCLE 290610
RWRCLE
OHIO REGIONAL WEATHER ROUNDUP
NATIONAL WEATHER SERVICE WILMINGTON, OH
200 AM EDT TUE JUL 29 2014

NOTE: "FAIR" INDICATES FEW OR NO CLOUDS BELOW 12,000 FEET WITH NO
SIGNIFICANT WEATHER AND/OR OBSTRUCTIONS TO VISIBILITY.

OHZ001>008-015>018-024>027-034-035-043-044-290700-
   NORTHWEST OHIO

CITY           SKY/WX    TMP DP  RH WIND       PRES   REMARKS
DEFIANCE       CLEAR     56  49  77 CALM      30.02S
FINDLAY        CLOUDY    60  50  69 N8        30.00S
TOLEDO EXPRESS CLEAR     53  49  86 NW5       30.01S
TOLEDO METCALF CLEAR     54  47  77 NW6       30.01S
LIMA           CLEAR     56  52  86 N6        30.01S
$$

OHZ009>014-019>023-028>033-038-089-290700-
   NORTHEAST OHIO

CITY           SKY/WX    TMP DP  RH WIND       PRES   REMARKS
CLE-HOPKINS    PTCLDY    58  46  64 N8        29.98F
CLE-LAKEFRONT  CLOUDY    62  49  62 N13       29.95S
CUY CO. ARPT   NOT AVBL
LORAIN-ELYRIA  CLOUDY    62  47  57 N6        29.99S
ASHTABULA      CLOUDY    57  48  72 NW3       29.94S
AKRON-CANTON   MOCLDY    54  48  80 NW5       29.96F
WOOSTER        CLEAR     53  49  86 W5        29.99S
MANSFIELD      CLOUDY    57  53  86 N3        29.99S
YOUNGSTOWN     CLOUDY    55  48  77 W6        29.95S
$$

OHZ042-051>053-060>062-070>072-077>081-290700-
  SOUTHWEST OHIO

CITY           SKY/WX    TMP DP  RH WIND       PRES   REMARKS
CINC-COVINGTON CLEAR     56  49  77 NW7       30.02S
CINC-LUNKEN    CLEAR     58  51  78 NW8       30.02S
HAMILTON       CLEAR     53  51  93 CALM      30.03S
DAYTON         CLEAR     54  50  86 NW8       30.01F
WRIGHT-PAT AFB CLEAR     56  51  85 NW6       30.00S
DAYTON GENERAL CLEAR     56  50  80 N7        30.00S
WILMINGTON     CLEAR     56  50  80 NW7       30.00S
$$

OHZ036-037-039>041-045>050-054>059-063>069-073>076-082>088-290700-
  CENTRAL AND SOUTHEAST OHIO

CITY           SKY/WX    TMP DP  RH WIND       PRES   REMARKS
COLUMBUS       CLOUDY    64  58  80 N5        29.97S
OSU AIRPORT    MOCLDY    60  55  83 N5        29.97F
BOLTON FIELD   MOCLDY    57  55  93 NW6       29.98F
RICKENBACK AFB CLOUDY    62  54  75 W3        29.97S
NEWARK         CLOUDY    61  55  81 N3        29.97S
MARION         MOCLDY    58  54  86 NE6       30.00R
LANCASTER      CLOUDY    62  58  86 NE5       29.97S
ZANESVILLE     CLOUDY    60  53  77 CALM      29.97S
NEW PHILLY     CLOUDY    58  54  86 CALM      29.98S
$$


USA.gov is the U.S. government's official web portal to all federal, state and local government web resources and services.